Temp
20 21 20 20 20 19 19 19 19 20 19 18 18 17 17 17 17 16 16 15 15 15 16 15 15 15 15 15 16 15 14 15
19 20 20 19 19 19 19 19 19 19 18 18 18 17 17 17 16 16 16 15 15 15 15 15 15 15 15 15 16 16 14 15
19 19 19 19 19 18 18 18 19 18 18 18 18 17 17 16 16 16 15 15 15 15 15 15 15 15 14 14 15 15 14 14
18 18 18 18 18 18 18 18 19 19 18 18 18 18 17 16 16 15 15 15 15 14 14 15 14 14 14 14 15 14 14 14
19 18 18 18 18 18 18 19 19 19 19 18 18 18 17 16 16 15 15 14 14 14 14 14 14 14 14 14 14 14 14 14
19 19 19 18 18 18 18 19 19 19 19 19 18 18 18 17 16 15 15 15 14 14 14 14 13 13 14 14 14 14 14 14
20 19 18 19 18 18 19 19 19 19 20 19 19 18 18 18 17 16 15 14 14 13 13 13 13 13 13 13 13 13 13 14
19 19 19 19 19 19 19 19 19 19 19 19 19 18 18 18 17 16 15 15 14 13 14 14 13 13 13 12 12 13 12 12
19 18 19 19 19 19 19 19 19 19 19 19 18 18 17 17 17 16 15 15 14 13 13 13 12 12 12 12 12 12 12 11
18 18 18 18 18 18 18 19 19 19 19 18 19 18 17 17 16 16 15 15 14 13 13 12 12 13 13 12 11 11 11 11
18 18 18 18 18 19 18 18 19 19 18 18 18 18 18 17 16 16 15 15 14 13 13 12 12 12 12 11 11 12 11 11
16 17 18 19 19 18 18 17 18 18 19 19 17 18 18 17 16 15 15 14 14 13 12 12 12 12 11 11 11 11 11 11
14 16 18 18 18 18 17 17 18 18 19 19 16 17 17 16 16 15 15 14 14 13 11 11 11 11 11 11 10 10 10 11
13 14 15 17 16 17 18 18 18 17 18 18 17 17 16 16 16 15 15 14 13 12 12 11 11 11 11 11 10 10 11 10
10 12 13 14 15 12 12 12 13 13 18 18 18 17 15 15 14 15 14 14 13 12 11 12 11 10 11 11 10 10 10 10
6 8 12 13 13 11 12 12 13 14 18 18 18 17 16 15 13 14 14 14 13 12 11 11 11 11 11 10 11 11 10 10
7 7 9 12 12 13 12 12 13 12 16 19 18 17 17 16 15 11 14 13 13 12 11 11 11 11 11 11 10 10 11 11
7 7 8 10 11 13 12 12 12 12 14 17 15 17 17 14 14 14 13 13 12 12 11 10 11 10 10 10 10 11 10 11
6 7 8 10 10 11 12 12 12 12 13 16 15 16 16 17 16 13 12 12 12 12 11 10 11 10 10 10 10 10 10 11
5 6 8 9 11 12 12 12 12 12 12 13 15 17 18 16 16 13 12 12 12 11 11 10 11 10 10 10 10 10 10 10
Height
1484 1486 1489 1491 1494 1496 1499 1501 1503 1504 1506 1508 1511 1514 1516 1518 1520 1522 1523 1525 1526 1527 1529 1531 1533 1535 1536 1538 1540 1543 1545 1546
1484 1485 1486 1489 1491 1494 1497 1500 1502 1504 1506 1507 1508 1510 1513 1515 1518 1520 1522 1524 1525 1527 1527 1529 1532 1533 1535 1537 1539 1540 1544 1545
1480 1483 1485 1487 1489 1491 1494 1497 1499 1502 1504 1506 1507 1508 1510 1512 1514 1517 1519 1521 1523 1525 1526 1528 1530 1532 1533 1535 1537 1538 1541 1543
1479 1482 1485 1486 1489 1490 1492 1494 1495 1496 1500 1503 1504 1505 1507 1510 1512 1514 1517 1519 1521 1524 1525 1526 1528 1530 1531 1534 1534 1536 1537 1541
1478 1480 1482 1484 1485 1487 1490 1490 1492 1493 1496 1498 1501 1502 1503 1505 1508 1510 1513 1515 1518 1521 1522 1523 1525 1528 1529 1530 1532 1533 1535 1537
1476 1478 1480 1481 1484 1487 1487 1489 1489 1490 1492 1494 1497 1498 1499 1500 1503 1505 1508 1511 1514 1517 1519 1520 1522 1525 1527 1528 1529 1531 1533 1536
1472 1473 1475 1477 1480 1481 1483 1485 1486 1487 1487 1490 1492 1493 1495 1496 1498 1501 1504 1507 1510 1513 1515 1517 1519 1522 1523 1524 1526 1528 1530 1532
1467 1469 1468 1470 1474 1477 1478 1478 1481 1481 1483 1485 1487 1488 1490 1491 1493 1496 1498 1502 1505 1508 1511 1513 1516 1519 1520 1520 1523 1524 1526 1528
1457 1459 1463 1464 1467 1469 1471 1473 1475 1476 1478 1480 1483 1485 1486 1488 1489 1491 1494 1497 1500 1504 1506 1509 1512 1515 1516 1517 1519 1521 1521 1524
1453 1454 1453 1455 1458 1462 1463 1466 1467 1470 1473 1475 1476 1479 1482 1483 1485 1487 1490 1492 1495 1498 1501 1504 1508 1511 1512 1512 1514 1516 1517 1520
1446 1447 1446 1447 1448 1450 1453 1456 1459 1464 1467 1469 1470 1471 1476 1479 1481 1483 1485 1488 1491 1493 1496 1499 1503 1507 1508 1509 1512 1514 1516 1517
1438 1438 1439 1439 1439 1440 1443 1445 1450 1455 1459 1460 1464 1465 1466 1473 1475 1478 1480 1483 1485 1488 1492 1495 1499 1503 1505 1507 1510 1512 1515 1516
1430 1428 1429 1429 1429 1430 1432 1434 1438 1443 1448 1452 1456 1457 1461 1466 1469 1472 1474 1477 1480 1484 1488 1491 1495 1498 1502 1505 1508 1511 1512 1515
1423 1419 1418 1418 1419 1419 1422 1425 1429 1433 1439 1444 1447 1449 1454 1460 1464 1468 1470 1473 1475 1479 1483 1487 1490 1493 1496 1500 1505 1508 1510 1512
1413 1410 1408 1407 1409 1412 1416 1419 1424 1427 1432 1435 1437 1442 1448 1454 1460 1464 1465 1467 1469 1474 1478 1481 1484 1488 1489 1494 1498 1500 1503 1507
1404 1400 1398 1398 1400 1402 1405 1406 1411 1413 1421 1425 1428 1434 1442 1451 1458 1463 1464 1463 1465 1468 1474 1476 1480 1482 1486 1488 1492 1494 1498 1502
1398 1393 1389 1389 1389 1392 1395 1398 1401 1409 1412 1416 1421 1429 1437 1438 1438 1455 1460 1458 1460 1462 1467 1470 1475 1478 1479 1482 1487 1489 1491 1494
1394 1387 1382 1380 1380 1381 1386 1389 1394 1399 1402 1406 1413 1422 1428 1429 1432 1443 1451 1454 1454 1457 1461 1465 1469 1472 1473 1475 1480 1482 1484 1489
1389 1382 1376 1374 1373 1375 1381 1385 1390 1391 1394 1398 1406 1413 1419 1423 1428 1434 1442 1447 1448 1452 1455 1459 1464 1465 1467 1469 1473 1476 1480 1484
1386 1379 1372 1369 1368 1371 1376 1379 1383 1388 1392 1396 1402 1407 1411 1414 1419 1426 1434 1438 1443 1447 1449 1454 1457 1459 1461 1464 1468 1471 1474 1477
Wind_Speed
32 31 30 29 28 26 25 24 23 21 20 20 20 20 20 20 19 19 18 17 17 17 17 17 19 18 17 15 14 13 16 14
31 32 32 31 29 27 25 24 23 22 21 20 21 21 21 20 20 20 19 19 18 19 18 18 19 19 17 16 14 15 17 14
32 33 33 31 30 29 27 26 24 22 22 21 21 22 22 22 23 22 20 20 20 19 18 18 20 20 21 20 20 22 17 17
28 31 31 31 30 29 29 28 27 25 24 23 23 21 22 23 22 22 21 20 20 19 18 19 20 22 22 21 23 24 22 22
25 29 29 30 31 31 31 30 30 26 25 25 24 23 22 24 24 24 23 23 22 20 20 22 24 24 26 21 22 25 25 25
18 23 29 30 30 30 31 31 30 28 26 25 25 24 24 24 25 26 25 25 25 24 24 24 26 24 29 23 23 25 26 27
20 23 24 27 32 31 32 32 32 30 28 27 26 26 24 23 24 25 25 25 26 26 26 25 25 26 28 25 26 26 29 28
25 26 27 29 31 33 34 34 34 33 31 29 29 26 25 24 24 24 25 24 26 27 26 24 26 27 28 28 28 27 30 30
23 27 31 35 36 37 35 36 37 36 33 31 31 29 27 25 25 25 25 24 26 25 24 23 25 27 28 28 28 28 31 31
21 22 27 34 38 40 41 38 37 37 34 34 33 32 29 27 27 26 24 24 25 25 25 25 25 25 23 22 21 25 27 33
23 23 26 29 33 40 42 46 41 36 35 35 36 34 31 30 29 27 25 25 25 25 26 26 26 24 21 20 21 21 25 33
27 28 27 27 29 33 42 47 47 40 37 40 40 34 33 33 30 29 26 26 26 25 26 27 26 24 22 23 23 26 26 25
27 29 28 31 31 34 39 46 48 48 44 43 42 35 35 34 32 30 29 28 27 25 24 28 27 25 25 24 24 21 27 30
24 29 30 30 31 34 36 43 47 51 48 46 42 37 38 36 34 33 30 28 26 25 29 28 30 30 31 27 18 24 27 28
33 25 31 29 33 28 31 30 37 39 45 47 44 40 40 36 35 33 32 30 29 28 28 30 32 31 33 23 11 11 22 32
31 27 27 31 30 30 35 38 39 47 48 49 44 41 37 37 30 34 33 30 30 29 28 31 33 31 33 36 25 17 15 13
31 29 26 29 30 36 39 41 41 37 48 50 47 41 36 43 38 43 38 31 30 29 30 32 33 33 34 36 37 25 21 20
28 26 26 24 28 36 39 40 39 41 48 48 45 37 31 39 44 48 42 34 31 28 28 28 32 31 33 34 37 38 30 23
26 25 23 16 19 28 34 38 37 42 46 49 42 38 34 31 38 41 40 36 30 29 27 28 30 30 31 33 35 36 32 30
27 25 19 12 16 21 30 33 36 38 37 40 41 45 37 40 40 44 42 34 32 28 25 28 26 27 28 27 33 34 35 36
Wind_Direction
199 199 201 202 204 205 210 213 214 215 213 213 213 214 212 211 211 214 215 212 209 208 206 207 210 208 206 204 205 216 213 208
204 204 204 204 204 208 212 215 217 218 217 217 216 216 217 216 215 217 220 219 219 218 214 212 215 213 206 192 200 220 212 208
210 210 207 207 208 208 209 214 217 219 219 219 219 218 219 218 218 220 222 226 226 225 221 219 218 213 202 205 212 214 203 206
223 219 215 213 213 211 211 212 214 214 218 219 221 222 223 224 224 223 225 228 231 228 226 225 219 214 207 215 219 218 215 215
240 228 226 224 220 215 215 213 216 215 217 220 223 223 222 222 224 223 224 226 229 225 221 224 223 217 224 224 229 226 220 216
272 255 244 233 230 226 222 222 220 220 221 221 225 226 226 225 225 225 226 227 231 229 225 229 226 224 213 234 227 220 221 217
277 261 255 254 241 231 229 228 228 227 224 225 228 229 230 230 227 226 227 227 230 229 231 231 228 216 226 224 223 231 226 217
270 266 262 262 253 248 240 233 234 232 230 229 231 230 232 230 228 226 228 227 231 232 235 234 227 224 227 230 230 235 224 217
256 263 257 252 250 248 249 246 239 237 236 235 236 234 231 231 229 227 227 227 230 232 234 231 225 228 235 240 238 232 227 216
262 260 263 261 254 249 245 249 244 242 240 239 239 238 235 231 228 228 227 229 227 227 232 233 231 230 234 239 233 227 228 203
275 268 256 256 258 254 249 246 244 241 240 240 240 238 235 231 228 227 225 227 227 227 229 227 222 225 231 223 214 213 212 214
279 271 262 251 254 256 251 245 242 237 239 241 239 236 231 229 226 225 223 225 227 225 224 219 221 225 218 213 217 219 210 223
279 270 259 249 247 249 248 242 237 231 232 239 237 235 231 227 224 223 222 224 226 224 222 215 218 221 211 212 217 221 221 219
285 274 261 247 241 245 247 244 239 234 229 235 235 234 229 225 224 223 224 224 223 222 219 217 221 219 208 212 214 221 218 224
298 280 266 251 240 239 239 236 233 233 228 234 233 233 228 225 227 226 224 225 224 220 221 219 217 219 215 201 182 210 215 221
308 297 274 256 245 225 222 219 218 226 225 230 232 229 223 225 231 237 231 227 226 222 220 224 222 223 217 218 214 217 192 203
315 307 286 263 252 226 224 228 226 224 225 225 229 227 229 227 225 243 239 228 227 229 222 224 227 229 225 223 224 216 214 213
316 314 295 271 260 230 221 226 222 221 227 222 221 218 229 224 229 225 236 227 224 230 225 228 229 231 226 231 235 221 218 211
328 322 305 281 247 224 222 225 221 227 229 223 211 193 197 195 210 219 227 226 224 229 230 231 234 232 231 232 225 226 224 226
337 333 314 279 226 220 225 225 225 230 226 227 216 205 216 218 225 219 221 222 225 229 231 234 232 237 232 234 235 236 233 233